[[{"header":{"parameterUnit":"m.s-1","parameterCategory":1,"la1":30.2991,"la2":30.254,"lo1":-89.0895,"lo2":-89.0444,"dy":0.0017,"dx":0.0017,"nx":28,"ny":28,"refTime":"2024-08-02T09:00:00:Z","depth":0,"parameterNumber":2,"parameterNumberName":"U-component_of_WINDS"},"data":[0,0,0,0,0,0,0,0,0,0,0,0,0,0,0,0,0,0,0,0,0,0,0,0,0,0,0,0,0,0,0,0,0,0,0,0,0,0,0,0,0,0,0,0,0,0,0,0,0,0,0,0,0,0,0,0,0,0,2.135,2.1351,0,2.1398,2.1398,2.1399,2.1395,2.1395,2.1394,2.1393,2.1445,2.1447,2.1449,0,0,0,0,0,0,0,0,0,0,0,0,0,2.1261,2.1263,2.135,2.1351,2.1351,2.1398,2.1398,2.1399,2.1395,2.1395,2.1394,2.1393,2.1444,2.1447,2.1449,0,0,0,0,0,0,0,0,0,0,0,0,0,2.1303,2.1263,2.135,2.1355,2.1356,2.1398,2.1398,2.1399,2.1396,2.1394,2.1393,2.1392,2.1443,2.1446,2.1449,2.149,0,0,2.1459,2.146,0,0,0,0,0,0,0,0,2.1301,2.1307,2.1354,2.1355,2.1356,2.1389,2.1386,2.143,2.1396,2.1381,2.1393,2.1392,2.1428,2.1432,2.1443,2.1493,2.1495,2.1459,2.1461,2.1462,2.1463,0,0,0,0,0,0,0,2.1298,2.1305,2.1369,2.1354,2.1356,2.1357,2.1361,2.1394,2.141,2.1382,2.1382,2.1387,2.1428,2.144,2.1444,2.1496,2.1459,2.1462,2.1464,2.1465,2.1584,2.1585,0,0,0,0,0,0,2.1294,2.1302,2.1368,2.137,2.1325,2.1359,2.1364,2.138,2.1409,2.1413,2.1388,2.1387,2.1436,2.1441,2.1446,2.1496,2.1462,2.1465,2.1467,2.1582,2.1584,2.1585,0,0,0,0,0,0,2.1292,2.1299,2.1366,2.1336,2.1345,2.1362,2.1379,2.1381,2.1393,2.1414,2.1417,2.1397,2.1435,2.1442,2.148,2.1498,2.1467,2.1469,2.1581,2.1583,2.1585,2.1597,0,0,0,0,0,0,2.1289,2.1299,2.1313,2.1337,2.1346,2.1396,2.138,2.1383,2.1398,2.1397,2.1424,2.1427,2.1435,2.1475,2.1483,2.1502,2.1472,2.1579,2.1582,2.1584,2.1595,2.1599,2.1602,0,0,0,0,0,2.1286,2.1314,2.1313,2.1321,2.1364,2.1397,2.1403,2.141,2.14,2.1415,2.1429,2.1426,2.1496,2.1479,2.1487,2.1508,2.1578,2.1581,2.1584,2.1593,2.1598,2.1602,0,0,0,0,0,0,2.1292,2.1317,2.1316,2.1353,2.1373,2.1397,2.1415,2.1415,2.1439,2.1437,2.1447,2.1453,2.1491,2.1504,2.1485,2.155,2.1536,2.154,2.154,2.1545,2.1548,2.1544,2.1474,0,0,0,0,0,2.1297,2.1321,2.1343,2.1373,2.1383,2.1398,2.1413,2.1417,2.1438,2.1447,2.1463,2.1485,2.1512,2.153,2.1556,2.1598,2.1604,2.1617,2.1621,2.1624,2.1627,2.1652,2.1658,2.1595,2.1595,2.1595,0,0,2.1309,2.1326,2.134,2.1375,2.1391,2.1416,2.1405,2.1432,2.1452,2.1451,2.1487,2.1501,2.1527,2.1567,2.1586,2.1579,2.1646,2.1627,2.163,2.1631,2.1655,2.1661,2.1667,2.1597,2.1597,2.1596,0,0,2.1343,2.1358,2.1385,2.1402,2.1427,2.1437,2.1444,2.1468,2.1477,2.1514,2.1515,2.154,2.1586,2.1604,2.162,2.1666,2.1664,2.1674,2.1693,2.1717,2.1722,2.1727,2.1743,2.1749,2.1678,2.1678,2.1678,0,2.1354,2.1391,2.14,2.1427,2.1443,2.1445,2.1474,2.1491,2.1523,2.1535,2.1527,2.1587,2.1604,2.1649,2.1661,2.1674,2.1683,2.1669,2.1721,2.1725,2.173,2.1745,2.1751,2.1679,2.1679,2.1679,2.1679,0,2.1404,2.143,2.145,2.1481,2.15,2.1528,2.1543,2.1561,2.1566,2.1578,2.1617,2.1638,2.1669,2.1681,2.1685,2.1728,2.1723,2.1719,2.1703,2.1736,2.1751,2.1757,2.168,2.168,2.168,2.1679,0,0,2.1438,2.1476,2.1483,2.1498,2.1527,2.1549,2.1579,2.1609,2.1625,2.1649,2.1675,2.1716,2.1712,2.173,2.1738,2.1759,2.1795,2.1752,2.1753,2.1758,2.1844,2.1846,2.1853,2.1796,2.1797,2.1798,2.1842,0,2.1474,2.1525,2.1536,2.1581,2.1607,2.1612,2.1638,2.1661,2.1674,2.1699,2.1715,2.1743,2.1736,2.1747,2.1769,2.1786,2.1812,2.1783,2.1821,2.1822,2.1811,2.1861,2.1863,2.1903,2.1848,2.1849,2.185,0,2.1521,2.1546,2.1594,2.1622,2.1633,2.1657,2.1687,2.1711,2.1737,2.1746,2.1767,2.1773,2.1807,2.1793,2.1841,2.1821,2.1838,2.1849,2.1851,2.1853,2.1836,2.1863,2.1916,2.1922,2.1859,2.1858,2.1858,0,2.1541,2.1587,2.1622,2.1635,2.1669,2.1685,2.1701,2.1726,2.1745,2.1772,2.1784,2.1816,2.1832,2.1858,2.1873,2.1861,2.192,2.1907,2.1928,2.1928,2.1938,2.1937,2.1993,2.1952,2.1952,2.1952,2.1952,0,2.1579,2.1607,2.1631,2.1652,2.1686,2.17,2.1733,2.1749,2.1772,2.1798,2.1806,2.183,2.1849,2.1877,2.189,2.1928,2.1936,2.1945,2.1947,2.1943,2.1942,2.1952,2.1949,2.1954,2.1953,2.1953,2.1953,0,2.1604,2.1621,2.1659,2.169,2.1698,2.1722,2.1748,2.177,2.1786,2.1818,2.1827,2.1851,2.1885,2.1903,2.1946,2.1954,2.1997,2.1999,2.1987,2.1988,2.2008,2.2005,2.2071,2.2081,2.2035,2.2036,2.2036,0,2.1626,2.1648,2.1682,2.1699,2.1715,2.1743,2.1762,2.1779,2.1799,2.1833,2.1851,2.1885,2.1913,2.1967,2.1989,2.2023,2.2025,2.2046,2.2029,2.2025,2.2024,2.2022,2.2024,2.2047,2.2048,2.2048,2.2049,0,2.1662,2.1671,2.1697,2.1728,2.1751,2.1776,2.1801,2.1815,2.1837,2.186,2.1894,2.1915,2.196,2.1994,2.2029,2.2047,2.2052,2.2054,2.2061,2.2055,2.2047,2.2051,2.1993,2.2052,2.2051,2.2051,2.2051,2.2051,2.1686,2.1707,2.1734,2.1764,2.1785,2.1809,2.1832,2.1851,2.1879,2.1915,2.1925,2.1961,2.1991,2.2039,2.2059,2.2089,2.2085,2.2095,2.2097,2.2098,2.2099,2.2044,2.2096,2.2096,2.2096,2.2096,2.2096,0,2.1722,2.1741,2.1769,2.1804,2.1829,2.1832,2.1861,2.1882,2.1913,2.194,2.1968,2.2009,2.2043,2.207,2.2105,2.2124,2.2128,2.2133,2.2131,2.2135,2.21,2.2091,2.213,2.213,2.213,2.213,2.213,2.213,2.1743,2.1779,2.1791,2.1839,2.1858,2.1892,2.1909,2.1932,2.1954,2.1999,2.2027,2.2044,2.2072,2.211,2.2143,2.215,2.2162,2.2167,2.2175,2.2141,2.2137,2.2134,2.2124,2.217,2.217,2.2207,2.2207,2.2207]},{"header":{"parameterUnit":"m.s-1","parameterCategory":1,"la1":30.2991,"la2":30.254,"lo1":-89.0895,"lo2":-89.0444,"dy":0.0017,"dx":0.0017,"nx":28,"ny":28,"refTime":"2024-08-02T09:00:00:Z","depth":0,"parameterNumber":3,"parameterNumberName":"V-component_of_WINDS"},"data":[0,0,0,0,0,0,0,0,0,0,0,0,0,0,0,0,0,0,0,0,0,0,0,0,0,0,0,0,0,0,0,0,0,0,0,0,0,0,0,0,0,0,0,0,0,0,0,0,0,0,0,0,0,0,0,0,0,0,4.8318,4.832,0,4.8446,4.8448,4.8449,4.8499,4.8498,4.8498,4.8498,4.8616,4.8619,4.8622,0,0,0,0,0,0,0,0,0,0,0,0,0,4.8105,4.8108,4.8318,4.832,4.8321,4.8446,4.8448,4.8449,4.8499,4.8498,4.8498,4.8497,4.8614,4.8619,4.8623,0,0,0,0,0,0,0,0,0,0,0,0,0,4.8211,4.811,4.8318,4.8361,4.8366,4.8446,4.8448,4.845,4.8499,4.8498,4.8498,4.8497,4.8613,4.8618,4.8623,4.8665,0,0,4.8639,4.8641,0,0,0,0,0,0,0,0,4.8205,4.8219,4.8353,4.8358,4.8364,4.8456,4.8416,4.8521,4.8499,4.8448,4.8498,4.8497,4.8562,4.8571,4.8596,4.867,4.8675,4.8639,4.8643,4.8645,4.8646,0,0,0,0,0,0,0,4.8198,4.8214,4.8368,4.8355,4.8362,4.8371,4.8385,4.8436,4.8506,4.8452,4.8456,4.8472,4.8565,4.8591,4.8599,4.8677,4.8639,4.8644,4.8647,4.8649,4.8793,4.8794,0,0,0,0,0,0,4.8185,4.8207,4.8364,4.8372,4.8282,4.8375,4.8391,4.8427,4.8505,4.8517,4.8472,4.8473,4.8582,4.8593,4.8603,4.8659,4.8645,4.865,4.8653,4.8792,4.8793,4.8794,0,0,0,0,0,0,4.818,4.8198,4.8359,4.8291,4.8312,4.8379,4.8419,4.843,4.8456,4.852,4.8532,4.8487,4.8582,4.8596,4.865,4.8664,4.8652,4.8657,4.8791,4.8792,4.8793,4.8769,0,0,0,0,0,0,4.8174,4.8196,4.8215,4.8291,4.8316,4.8407,4.842,4.8433,4.8466,4.847,4.8537,4.8548,4.8583,4.8642,4.8656,4.8671,4.8661,4.879,4.8792,4.8793,4.8769,4.8769,4.8769,0,0,0,0,0,4.8166,4.82,4.8216,4.8235,4.8342,4.8408,4.8421,4.8466,4.8467,4.8485,4.8527,4.8545,4.866,4.8648,4.8663,4.8679,4.879,4.8791,4.8793,4.8769,4.8769,4.8769,0,0,0,0,0,0,4.8118,4.8211,4.8229,4.829,4.8342,4.8416,4.844,4.8464,4.8512,4.8513,4.8561,4.8576,4.8626,4.8658,4.8642,4.8724,4.8726,4.8731,4.8702,4.8703,4.8703,4.8695,4.8665,0,0,0,0,0,4.8116,4.8166,4.8242,4.8288,4.8313,4.8373,4.8403,4.8433,4.8486,4.8507,4.8552,4.86,4.8647,4.8676,4.8723,4.8773,4.8789,4.8792,4.8792,4.8792,4.8796,4.8826,4.8829,4.8799,4.8799,4.8799,0,0,4.8109,4.8166,4.8194,4.828,4.8323,4.8372,4.839,4.8439,4.8475,4.8513,4.8569,4.8604,4.866,4.8713,4.8738,4.8741,4.8807,4.8794,4.8794,4.8797,4.8828,4.8831,4.8833,4.88,4.88,4.88,0,0,4.8122,4.8171,4.8216,4.826,4.8328,4.8367,4.8378,4.845,4.8476,4.8534,4.8565,4.8605,4.8684,4.8724,4.8755,4.8786,4.8804,4.8799,4.8799,4.8828,4.8831,4.8833,4.8845,4.8849,4.8802,4.8802,4.8802,0,4.8104,4.8183,4.8234,4.8284,4.832,4.8363,4.8407,4.8446,4.8522,4.8545,4.8548,4.8651,4.8691,4.8755,4.8763,4.8786,4.8798,4.8791,4.8827,4.883,4.8833,4.8845,4.8849,4.8801,4.8801,4.8801,4.8801,0,4.8158,4.8211,4.8238,4.8319,4.8358,4.8404,4.8459,4.8492,4.8519,4.8557,4.8615,4.8666,4.8725,4.8742,4.8765,4.8809,4.8809,4.8818,4.8821,4.8834,4.8846,4.8851,4.8799,4.88,4.88,4.88,0,0,4.8143,4.8254,4.8263,4.8301,4.838,4.842,4.8467,4.853,4.8558,4.8609,4.8649,4.8717,4.8728,4.8762,4.8791,4.8816,4.8839,4.8823,4.8825,4.8825,4.8891,4.8884,4.8889,4.8852,4.8853,4.8854,4.8887,0,4.8168,4.8261,4.8309,4.8379,4.8429,4.8471,4.8512,4.8563,4.86,4.8644,4.8683,4.8732,4.8741,4.8763,4.879,4.8831,4.8853,4.8829,4.8888,4.8889,4.8874,4.8895,4.8887,4.8916,4.8892,4.8892,4.8893,0,4.8209,4.8267,4.8344,4.842,4.8442,4.8479,4.8541,4.8584,4.8642,4.8667,4.8707,4.8737,4.8785,4.8785,4.8852,4.8834,4.8861,4.8885,4.8887,4.8894,4.8892,4.8903,4.8925,4.893,4.8901,4.89,4.8899,0,4.8193,4.8288,4.8348,4.8379,4.8468,4.8493,4.853,4.8588,4.8624,4.8676,4.8699,4.8754,4.8784,4.8825,4.8868,4.8863,4.8931,4.8933,4.8952,4.8951,4.8964,4.8963,4.8991,4.898,4.898,4.8979,4.8979,0,4.8216,4.8261,4.8343,4.8379,4.8431,4.8485,4.8533,4.8573,4.8625,4.8667,4.8704,4.8742,4.8796,4.884,4.8873,4.8924,4.8936,4.8956,4.8965,4.8954,4.8952,4.8972,4.8972,4.8981,4.898,4.898,4.898,0,4.8206,4.8263,4.833,4.8411,4.8433,4.8467,4.8535,4.857,4.861,4.8663,4.8678,4.874,4.8794,4.8841,4.891,4.8933,4.8985,4.8995,4.8968,4.8972,4.8989,4.8987,4.9032,4.9041,4.9022,4.9022,4.9022,0,4.8217,4.8255,4.8341,4.8375,4.8414,4.8467,4.8505,4.8558,4.8595,4.8666,4.8692,4.875,4.88,4.8883,4.8931,4.8985,4.8997,4.9009,4.9004,4.8993,4.8998,4.8996,4.9,4.9009,4.9009,4.9009,4.9009,0,4.8232,4.8259,4.8315,4.8381,4.8427,4.848,4.8533,4.8557,4.8621,4.866,4.8719,4.8757,4.8832,4.8888,4.8948,4.8982,4.9005,4.901,4.9017,4.9007,4.899,4.9001,4.8969,4.9009,4.9009,4.9009,4.9009,4.9009,4.8234,4.827,4.8338,4.8399,4.8447,4.8497,4.8535,4.8582,4.8634,4.8702,4.8729,4.8789,4.8846,4.893,4.8964,4.901,4.9013,4.9023,4.9026,4.9028,4.9027,4.8983,4.902,4.902,4.902,4.902,4.902,0,4.8252,4.8299,4.8355,4.8432,4.848,4.8503,4.8564,4.8601,4.8655,4.8709,4.8759,4.8826,4.8882,4.8936,4.8994,4.9019,4.9032,4.9033,4.9031,4.9039,4.902,4.9009,4.9022,4.9022,4.9022,4.9022,4.9022,4.9022,4.8267,4.833,4.8365,4.8451,4.8496,4.856,4.8593,4.8639,4.8683,4.8759,4.8807,4.8844,4.8897,4.896,4.9011,4.9025,4.9045,4.9043,4.906,4.9041,4.904,4.9039,4.9029,4.9047,4.9047,4.9076,4.9076,4.9077]}]]